Hourly Data Report for September 25, 2017

All times are specified in Local Standard Time (LST). Add 1 hour to adjust for Daylight Saving Time where and when it is observed.

QIKIQTARJUAQ A
NUNAVUT

67°32'48.000" N
64°01'54.000" W
5.50 m
2400577
YVM

Related Data

No related data is available for this station

Download Data

Hourly Data (September 2017)
Hourly Data Report for September 25, 2017
Temp Definition
°C
Dew Point Temp Definition
°C
Rel Hum Definition
%
Wind Dir Definition
10's deg

Wind Spd Definition
km/h
Visibility Definition
km
Stn Press Definition
kPa
Hmdx Definition


Wind Chill Definition


Weather Definition


TIME
00:00 Legend Double Dagger 0.4 -3.0 78 34 21 16.1 100.46     Rain
01:00 Legend Double Dagger 0.3 -2.3 83 36 28 16.1 100.49     Rain
02:00 Legend Double Dagger 0.1 -3.0 80 33 24 16.1 100.50     Rain
03:00 Legend Double Dagger 0.2 -2.8 80 35 28 16.1 100.51     LegendNANA
04:00 Legend Double Dagger 0.4 -2.9 79 32 22 16.1 100.54     LegendNANA
05:00 Legend Double Dagger -0.7 -2.6 87 36 15 9.7 100.64   -5 Snow
06:00 Legend Double Dagger -0.3 -3.4 80 33 8 16.1 100.66   -3 LegendNANA
07:00 Legend Double Dagger 0.3 -4.0 73 35 21 16.1 100.72     Rain
08:00 Legend Double Dagger 0.1 -3.7 75 35 11 16.1 100.76     LegendNANA
09:00 Legend Double Dagger 0.1 -2.4 83 1 18 16.1 100.79     LegendNANA
10:00 Legend Double Dagger 0.3 -3.3 77 36 13 16.1 100.82     LegendNANA
11:00 Legend Double Dagger 0.4 -4.1 72 2 8 16.1 100.82     LegendNANA
12:00 Legend Double Dagger 0.5 -3.5 75 2 9 16.1 100.85     LegendNANA
13:00 Legend Double Dagger 0.0 -1.6 89 4 17 16.1 100.87   -5 LegendNANA
14:00 Legend Double Dagger 0.4 -1.8 85 3 15 16.1 100.90     LegendNANA
15:00 Legend Double Dagger 0.2 -2.3 84 4 17 16.1 100.94     LegendNANA
16:00 Legend Double Dagger 0.3 -2.5 81 36 11 16.1 100.97     LegendNANA
17:00 Legend Double Dagger -0.3 -3.2 81 26 9 16.1 101.01   -3 LegendNANA
18:00 Legend Double Dagger -0.6 -4.4 76 19 8 16.1 100.99   -3 LegendNANA
19:00 Legend Double Dagger -1.2 -4.7 77 19 13 16.1 101.00   -5 LegendNANA
20:00 Legend Double Dagger -1.5 -5.6 74 20 15 16.1 100.99   -6 LegendNANA
21:00 Legend Double Dagger -3.3 -6.1 81 17 9 16.1 100.99   -7 LegendNANA
22:00 Legend Double Dagger -2.4 -6.4 74 19 15 16.1 100.98   -7 LegendNANA
23:00 Legend Double Dagger -2.9 -5.5 82   0 16.1 100.96     LegendNANA

Notes on Data Quality.

Legend

  • E = Estimated
  • M = Missing
  • NA = Not Available
  • ‡ = Partner data that is not subject to review by the National Climate Archives
Date modified: